Location: Unspecified
(0.0000°N, 0.0000°E)
Time: 03:30:32
(UTC+02:00)

Iridium 15 - Visible Passes

Search period start: 20 June 2018 00:00
Search period end: 30 June 2018 00:00
Orbit: 761 x 764 km, 86.4° (Epoch: 19 June)

Date Brightness Start Highest point End Pass type
(mag) Time Alt. Az. Time Alt. Az. Time Alt. Az.
26 Jun 8.7 22:51:37 11° N 22:51:37 11° N 22:51:46 10° N visible
27 Jun 8.4 22:13:20 12° NNE 22:13:20 12° NNE 22:13:41 10° NNE visible
28 Jun 8.8 23:15:09 12° NW 23:15:09 12° NW 23:15:33 10° NNW visible
29 Jun 7.9 22:36:47 23° N 22:36:47 23° N 22:38:38 10° N visible
